Other Surface Observations
Issued by NWS

Home | Current Version | Previous Version | Text Only | Print | Product List | Glossary On
Versions: 1 2 3 4 5 6 7 8 9 10 11 12 13 14 15 16 17 18 19 20 21 22 23 24 25 26 27 28 29 30 31 32 33 34 35 36 37 38 39 40 41 42 43 44 45 46 47 48 49 50
000
SXUS52 KTAE 261905
OSOTAE
OSOTAE
North Florida/South Alabama/Southwest Georgia Weather Roundup
National Weather Service Tallahassee Florida
300 PM EDT TUE JUL 26 2016

Note: "fair" indicates few or no clouds below 12,000 feet with no
significant weather and/or obstructions to visibility.

!FLZ017-115-028-034-025-262000
...North Florida...

CITY           SKY/WX    TMP DP  RH WIND       PRES   REMARKS
TALLAHASSEE    PTSUNNY   92  72  51 S15       30.03F HX  99
APALACHICOLA   CLOUDY    86  80  82 S10       30.03F HX 101
PERRY          MOSUNNY   91  71  53 S13       30.05F HX  97
CROSS CITY       N/A     92  74  55 SW10      30.05F HX 101
JACKSONVILLE   PTSUNNY   94  69  44 VRB6      30.03F HX  99
$$

!FLZ112-006-005-002-011-262000
...Florida Panhandle...

CITY           SKY/WX    TMP DP  RH WIND       PRES   REMARKS
MARIANNA       PTSUNNY   86  78  77 S15       30.02F HX  98
BONIFAY        FAIR      80  77  90 SE5       30.04F
PANAMA CITY NW LGT RAIN  83  77  82 S13G24    30.01F HX  92
TYNDALL AFB    LGT RAIN  79  77  94 S9        30.03S
TYND DRONE APT NOT AVBL
DE FUNIAK SPR  FAIR      79  78  95 SE5       30.03S
EGLIN AFB      NOT AVBL
DESTIN         PTSUNNY   88  78  72 S8G17     30.00S HX 101
HURLBURT       NOT AVBL
CRESTVIEW      PTSUNNY   89  74  60 S10G17    30.01S HX  98
PENSACOLA      CLOUDY    84  76  76 S18G25    29.98F HX  93
$$

!ALZ063-066-262000
...South Alabama...

CITY           SKY/WX    TMP DP  RH WIND       PRES   REMARKS
DOTHAN         PTSUNNY   88  74  63 S13G22    30.06F HX  96
OZARK CAIRNS     N/A     86  79  79 SE6       30.02F THUNDER HX  99
FT RUCKER HELI PTSUNNY   82  76  81 S5        30.01F
RUCKER HELI 3  FAIR      83  75  78 S6        30.03F HX  90
RUCKER HELI 2  FAIR      82  76  81 CALM      30.02F
FLORALA APT    CLOUDY    81  76  84 SE6       30.02F
ANDALUSIA      PTSUNNY   89  74  60 VRB7G18   30.01F HX  98
TROY           CLOUDY    84  77  79 VRB6      30.03F HX  94
EUFALA         FAIR      94  72  48 E9        30.01F HX 102
MOBILE         TSTM      79  76  90 S10G24    29.97F FOG
$$

!GAZ120>161-262000
...Southwest and South Central Georgia...

CITY           SKY/WX    TMP DP  RH WIND       PRES   REMARKS
THOMASVILLE    NOT AVBL
BAINBRIDGE     LGT RAIN  84  73  70 S9        30.05S HX  91
MOODY AFB      PTSUNNY   92  71  48 SW7       30.04F HX  98
VALDOSTA       CLOUDY    84  74  71 SW8       30.06R HX  91
MOULTRIE       MOSUNNY   88  72  58 SW6       30.06F HX  94
BLAKELY        PTSUNNY   90  75  62 S5        30.03F HX 100
ALBANY         LGT RAIN  85  74  69 SE13      30.06S HX  92
TIFTON         FAIR      92  71  50 S7        30.04F HX  99
FITZGERALD     MOCLDY    98  75  47 SW7       30.06F HX 109
CORDELE        FAIR      96  69  41 S3        30.04F HX 102
AMERICUS       FAIR      91  64  40 S6        30.04F HX  93
HOMERVILLE     PTSUNNY   95  72  46 SE6       30.04F HX 103
$$

!GMZ750-755-770-775-262000
...Coastal and Buoy Obs...

STATION/POSITION TIME  TEMP    WIND        PRES    VSBY  WAVE
                       AIR SEA DIR/SP/G                  HT/PER
                 (UTC) (F)     (DEG/KT/KT) (MB)    (MI)  (FT/S)
KEATON BEACH     1900   86     180/ 12/ 15 1017.4F
CEDAR KEY        1800   86     210/  7/ 10 1019.0F
C TOWER          1900   85     200/ 17/ 18 1017.7F
APALACHICOLA BUO 1850   85 87  170/ 12/ 14 1017.8F         4/ 8
PANAMA CITY BUOY 1750   83 87  250/ 12/ 14 1017.6          5/ 6
MOBILE BUOY      1800   79 87  200/ 16/ 19 1015.4R
ORANGE BCH AL BU 1850   83 87  210/ 19/ 21 1015.2R         6/ 6
$$




USA.gov is the U.S. government's official web portal to all federal, state and local government web resources and services.